Regional Weather Roundup
Issued by NWS New Orleans/Baton Rouge, LA

Home | Current Version | Previous Version | Text Only | Print | Product List | Glossary On
Versions: 1 2 3 4 5 6 7 8 9 10 11 12 13 14 15 16 17 18 19 20 21 22 23 24 25 26 27 28
000
ASUS44 KLIX 061411
RWRLIX
NEW ORLEANS REGIONAL WEATHER ROUNDUP
NATIONAL WEATHER SERVICE NEW ORLEANS LA
900 AM CDT FRI MAY 06 2016

NOTE: "FAIR" INDICATES FEW OR NO CLOUDS BELOW 12,000 FEET WITH NO
      SIGNIFICANT WEATHER AND/OR OBSTRUCTIONS TO VISIBILITY.
      SKY/WX - SKY CONDITION AND SIGNIFICANT WEATHER.
      TMP - AIR TEMPERATURE.     DP    - DEWPOINT TEMPERATURE.
      RH  - RELATIVE HUMIDITY.   PRES  - PRESSURE.
      HI  - HEAT INDEX.          WCI   - WIND CHILL INDEX.

*  THESE STATIONS ARE NOT NWS OR FAA STATIONS AND ARE NOT UNDER
   NWS QUALITY CONTROL.

LAZ038-040-048-061>063-065>067-069-061500-
SOUTHEAST LOUISIANA

CITY           SKY/WX    TMP DP  RH WIND       PRES   REMARKS
N.O. AUDUBON     N/A     54  50  87 MISG        N/A
N.O. INTL ARPT MOSUNNY   68  50  52 NE14      30.06R
N.O. LAKEFRONT SUNNY     64  51  62 NE13      30.07R
N.O. DOWNTOWN*   N/A     67  46  47 NE7       30.07R
RESERVE*         N/A     69  50  51 NE7       30.07R
SLIDELL        SUNNY     62  48  60 NE6       30.06R
BATON ROUGE    SUNNY     64  47  53 NE9       30.08R
BOOTHVILLE     SUNNY     69  49  48 N8        30.04R
BELLE CHASSE   SUNNY     67  50  54 NE7       30.06R
BOGALUSA*        N/A     60  47  60 NE6       30.10R
GALLIANO*      SUNNY     69  52  54 NE7       30.06R
NEW ROADS*       N/A     65  47  52 NE7       30.10R
GONZALES*        N/A     65  46  51 NE6       30.07R
HAMMOND*       SUNNY     63  46  55 N3        30.08R
HOUMA*         SUNNY     66  52  59 NE7       30.07R
PORT FOURCHON* SUNNY     70  46  43 NE13      30.06R

$$

MSZ070-080>082-061500-
SOUTHERN MISSISSIPPI

CITY           SKY/WX    TMP DP  RH WIND       PRES   REMARKS
MCCOMB         SUNNY     60  45  57 NE7       30.09R
GULFPORT       SUNNY     63  46  54 N8        30.05R
BILOXI         SUNNY     62  48  59 NE8       30.04S
PASCAGOULA     SUNNY     62  47  57 NE10      30.05R
STENNIS ARPT*  SUNNY     61  43  51 NE8       30.06R

$$

COASTAL OBSERVATIONS
LAKE AND NEARSHORE STATIONS

STATION/POSITION TIME  TEMP    WIND        PRES    WAVE
                       AIR SEA DIR/SP/G            HT/PER
                 (UTC) (F)     (DEG/KT/KT) (MB)    (FT/S)
PASCAGOULA       1300   59      20/  8/ 12 1016.6
WAVELAND YACHT   1300   58 69   30/ 13/ 14 1017.1
GRAND ISLE       1300   68 74   60/ 10/ 13 1016.8
SOUTHWEST PASS   1300           40/ 15/ 18   N/A
NEW CANAL        1300   64 72   60/ 13/ 15 1016.9
SHELL BEACH      1300   64 71   30/ 14/ 16 1017.2

OFFSHORE STATIONS

STATION/POSITION TIME  TEMP    WIND        PRES    WAVE
                       AIR SEA DIR/SP/G            HT/PER
                 (UTC) (F)     (DEG/KT/KT) (MB)    (FT/S)
64 S DAUPHIN ISL 1300   68 74   10/ 14/ 19 1016.0

$$





USA.gov is the U.S. government's official web portal to all federal, state and local government web resources and services.